owner,sensor,date,latitude,longitude,vertical_datum,wind_speed,wind_to_direction,wind_speed_of_gust,qcFlag 
NDBC,ioos:station:NOAA.NDBC:SANF1:1,2019-09-01T00:50:00Z,24.4560,-81.8770,45.4,5.7,130.0,6.7,'11111222,11111222,11111222' 
NDBC,ioos:station:NOAA.NDBC:SANF1:1,2019-09-01T01:50:00Z,24.4560,-81.8770,45.4,6.2,110.0,7.2,'11111222,11111222,11111222' 
NDBC,ioos:station:NOAA.NDBC:SANF1:1,2019-09-01T02:50:00Z,24.4560,-81.8770,45.4,5.1,190.0,6.7,'11111222,11111222,11111222' 
NDBC,ioos:station:NOAA.NDBC:SANF1:1,2019-09-01T03:50:00Z,24.4560,-81.8770,45.4,5.7,160.0,10.8,'11111222,11111222,11111222' 
NDBC,ioos:station:NOAA.NDBC:SANF1:1,2019-09-01T04:50:00Z,24.4560,-81.8770,45.4,5.1,140.0,6.2,'11111222,11111222,11111222' 
NDBC,ioos:station:NOAA.NDBC:SANF1:1,2019-09-01T05:50:00Z,24.4560,-81.8770,45.4,4.6,120.0,5.7,'11111222,11111222,11111222' 
NDBC,ioos:station:NOAA.NDBC:SANF1:1,2019-09-01T06:50:00Z,24.4560,-81.8770,45.4,4.1,160.0,5.1,'11111222,11111222,11111222' 
NDBC,ioos:station:NOAA.NDBC:SANF1:1,2019-09-01T08:00:00Z,24.4560,-81.8770,45.4,3.6,200.0,5.1,'11111222,11111222,11111222' 
NDBC,ioos:station:NOAA.NDBC:SANF1:1,2019-09-01T08:50:00Z,24.4560,-81.8770,45.4,2.6,260.0,3.6,'11111222,11111222,11111222' 
NDBC,ioos:station:NOAA.NDBC:SANF1:1,2019-09-01T09:50:00Z,24.4560,-81.8770,45.4,1.0,350.0,2.6,'11111222,11111222,11111222' 
NDBC,ioos:station:NOAA.NDBC:SANF1:1,2019-09-01T10:50:00Z,24.4560,-81.8770,45.4,0.5,120.0,1.0,'11111222,11111222,11111222' 
NDBC,ioos:station:NOAA.NDBC:SANF1:1,2019-09-01T11:50:00Z,24.4560,-81.8770,45.4,2.6,150.0,3.6,'11111222,11111222,11111222' 
NDBC,ioos:station:NOAA.NDBC:SANF1:1,2019-09-01T12:50:00Z,24.4560,-81.8770,45.4,2.1,170.0,3.1,'11111222,11111222,11111222' 
NDBC,ioos:station:NOAA.NDBC:SANF1:1,2019-09-01T13:50:00Z,24.4560,-81.8770,45.4,2.6,220.0,3.6,'11111222,11111222,11111222' 
NDBC,ioos:station:NOAA.NDBC:SANF1:1,2019-09-01T14:50:00Z,24.4560,-81.8770,45.4,4.1,210.0,5.1,'11111222,11111222,11111222' 
NDBC,ioos:station:NOAA.NDBC:SANF1:1,2019-09-01T15:50:00Z,24.4560,-81.8770,45.4,5.7,280.0,6.7,'11111222,11111222,11111222' 
NDBC,ioos:station:NOAA.NDBC:SANF1:1,2019-09-01T16:50:00Z,24.4560,-81.8770,45.4,4.6,220.0,5.1,'11111222,11111222,11111222' 
NDBC,ioos:station:NOAA.NDBC:SANF1:1,2019-09-01T17:50:00Z,24.4560,-81.8770,45.4,2.6,270.0,4.1,'11111222,11111222,11111222' 
NDBC,ioos:station:NOAA.NDBC:SANF1:1,2019-09-01T19:00:00Z,24.4560,-81.8770,45.4,3.6,270.0,4.6,'11111222,11111222,11111222' 
NDBC,ioos:station:NOAA.NDBC:SANF1:1,2019-09-01T19:50:00Z,24.4560,-81.8770,45.4,4.6,260.0,6.2,'11111222,11111222,11111222' 
NDBC,ioos:station:NOAA.NDBC:SANF1:1,2019-09-01T21:00:00Z,24.4560,-81.8770,45.4,5.1,260.0,5.7,'11111222,11111222,11111222' 
NDBC,ioos:station:NOAA.NDBC:SANF1:1,2019-09-01T21:50:00Z,24.4560,-81.8770,45.4,3.6,260.0,4.1,'11111222,11111222,11111222' 
NDBC,ioos:station:NOAA.NDBC:SANF1:1,2019-09-01T22:50:00Z,24.4560,-81.8770,45.4,4.6,260.0,5.7,'11111222,11111222,11111222' 
NDBC,ioos:station:NOAA.NDBC:SANF1:1,2019-09-01T23:50:00Z,24.4560,-81.8770,45.4,5.1,280.0,6.2,'11111222,11111222,11111222' 
NDBC,ioos:station:NOAA.NDBC:SANF1:1,2019-09-02T00:50:00Z,24.4560,-81.8770,45.4,5.7,270.0,6.7,'11111222,11111222,11111222' 
NDBC,ioos:station:NOAA.NDBC:SANF1:1,2019-09-02T01:50:00Z,24.4560,-81.8770,45.4,5.7,280.0,6.7,'11111222,11111222,11111222' 
NDBC,ioos:station:NOAA.NDBC:SANF1:1,2019-09-02T02:50:00Z,24.4560,-81.8770,45.4,5.7,280.0,7.2,'11111222,11111222,11111222' 
NDBC,ioos:station:NOAA.NDBC:SANF1:1,2019-09-02T03:50:00Z,24.4560,-81.8770,45.4,5.7,290.0,6.7,'11111222,11111222,11111222' 
NDBC,ioos:station:NOAA.NDBC:SANF1:1,2019-09-02T04:50:00Z,24.4560,-81.8770,45.4,4.6,290.0,5.7,'11111222,11111222,11111222' 
NDBC,ioos:station:NOAA.NDBC:SANF1:1,2019-09-02T05:50:00Z,24.4560,-81.8770,45.4,4.1,310.0,5.1,'11111222,11111222,11111222' 
NDBC,ioos:station:NOAA.NDBC:SANF1:1,2019-09-02T07:00:00Z,24.4560,-81.8770,45.4,5.1,300.0,6.7,'11111222,11111222,11111222' 
NDBC,ioos:station:NOAA.NDBC:SANF1:1,2019-09-02T07:50:00Z,24.4560,-81.8770,45.4,5.1,280.0,6.7,'11111222,11111222,11111222' 
NDBC,ioos:station:NOAA.NDBC:SANF1:1,2019-09-02T08:50:00Z,24.4560,-81.8770,45.4,6.2,270.0,7.7,'11111222,11111222,11111222' 
NDBC,ioos:station:NOAA.NDBC:SANF1:1,2019-09-02T09:50:00Z,24.4560,-81.8770,45.4,7.7,260.0,9.8,'11111222,11111222,11111222' 
NDBC,ioos:station:NOAA.NDBC:SANF1:1,2019-09-02T10:50:00Z,24.4560,-81.8770,45.4,8.8,270.0,10.3,'11111222,11111222,11111222' 
NDBC,ioos:station:NOAA.NDBC:SANF1:1,2019-09-02T11:50:00Z,24.4560,-81.8770,45.4,8.8,270.0,9.8,'11111222,11111222,11111222' 
NDBC,ioos:station:NOAA.NDBC:SANF1:1,2019-09-02T13:00:00Z,24.4560,-81.8770,45.4,8.2,280.0,9.8,'11111222,11111222,11111222' 
NDBC,ioos:station:NOAA.NDBC:SANF1:1,2019-09-02T15:50:00Z,24.4560,-81.8770,45.4,9.8,280.0,11.3,'11111222,11111222,11111222' 
NDBC,ioos:station:NOAA.NDBC:SANF1:1,2019-09-02T16:50:00Z,24.4560,-81.8770,45.4,9.8,280.0,11.3,'11111222,11111222,11111222' 
NDBC,ioos:station:NOAA.NDBC:SANF1:1,2019-09-02T17:50:00Z,24.4560,-81.8770,45.4,9.8,290.0,11.3,'11111222,11111222,11111222' 
NDBC,ioos:station:NOAA.NDBC:SANF1:1,2019-09-02T18:50:00Z,24.4560,-81.8770,45.4,9.8,280.0,11.8,'11111222,11111222,11111222' 
NDBC,ioos:station:NOAA.NDBC:SANF1:1,2019-09-02T19:50:00Z,24.4560,-81.8770,45.4,10.3,280.0,11.8,'11111222,11111222,11111222' 
NDBC,ioos:station:NOAA.NDBC:SANF1:1,2019-09-02T20:50:00Z,24.4560,-81.8770,45.4,10.8,280.0,12.9,'11111222,11111222,11111222' 
NDBC,ioos:station:NOAA.NDBC:SANF1:1,2019-09-02T21:50:00Z,24.4560,-81.8770,45.4,10.8,290.0,12.4,'11111222,11111222,11111222' 
NDBC,ioos:station:NOAA.NDBC:SANF1:1,2019-09-02T22:50:00Z,24.4560,-81.8770,45.4,10.8,300.0,12.9,'11111222,11111222,11111222' 
NDBC,ioos:station:NOAA.NDBC:SANF1:1,2019-09-02T23:50:00Z,24.4560,-81.8770,45.4,11.3,290.0,12.9,'11111222,11111222,11111222' 
NDBC,ioos:station:NOAA.NDBC:SANF1:1,2019-09-03T00:50:00Z,24.4560,-81.8770,45.4,10.3,290.0,12.4,'11111222,11111222,11111222' 
NDBC,ioos:station:NOAA.NDBC:SANF1:1,2019-09-03T01:50:00Z,24.4560,-81.8770,45.4,10.8,300.0,12.9,'11111222,11111222,11111222' 
NDBC,ioos:station:NOAA.NDBC:SANF1:1,2019-09-03T02:50:00Z,24.4560,-81.8770,45.4,9.8,300.0,12.4,'11111222,11111222,11111222' 
NDBC,ioos:station:NOAA.NDBC:SANF1:1,2019-09-03T03:50:00Z,24.4560,-81.8770,45.4,9.3,300.0,12.9,'11111222,11111222,11111222' 
NDBC,ioos:station:NOAA.NDBC:SANF1:1,2019-09-03T04:50:00Z,24.4560,-81.8770,45.4,9.8,320.0,13.9,'11111222,11111222,11111222' 
NDBC,ioos:station:NOAA.NDBC:SANF1:1,2019-09-03T05:50:00Z,24.4560,-81.8770,45.4,10.3,320.0,13.4,'11111222,11111222,11111222' 
NDBC,ioos:station:NOAA.NDBC:SANF1:1,2019-09-03T06:50:00Z,24.4560,-81.8770,45.4,8.2,310.0,10.8,'11111222,11111222,11111222' 
NDBC,ioos:station:NOAA.NDBC:SANF1:1,2019-09-03T07:50:00Z,24.4560,-81.8770,45.4,5.7,280.0,6.7,'11111222,11111222,11111222' 
NDBC,ioos:station:NOAA.NDBC:SANF1:1,2019-09-03T08:50:00Z,24.4560,-81.8770,45.4,6.2,310.0,7.7,'11111222,11111222,11111222' 
NDBC,ioos:station:NOAA.NDBC:SANF1:1,2019-09-03T09:50:00Z,24.4560,-81.8770,45.4,9.3,300.0,12.4,'11111222,11111222,11111222' 
NDBC,ioos:station:NOAA.NDBC:SANF1:1,2019-09-03T10:50:00Z,24.4560,-81.8770,45.4,9.3,270.0,10.3,'11111222,11111222,11111222' 
NDBC,ioos:station:NOAA.NDBC:SANF1:1,2019-09-03T11:50:00Z,24.4560,-81.8770,45.4,8.2,260.0,9.3,'11111222,11111222,11111222' 
NDBC,ioos:station:NOAA.NDBC:SANF1:1,2019-09-03T12:50:00Z,24.4560,-81.8770,45.4,7.7,270.0,8.8,'11111222,11111222,11111222' 
NDBC,ioos:station:NOAA.NDBC:SANF1:1,2019-09-03T13:50:00Z,24.4560,-81.8770,45.4,7.7,280.0,12.9,'11111222,11111222,11111222' 
NDBC,ioos:station:NOAA.NDBC:SANF1:1,2019-09-03T14:50:00Z,24.4560,-81.8770,45.4,8.8,290.0,10.3,'11111222,11111222,11111222' 
NDBC,ioos:station:NOAA.NDBC:SANF1:1,2019-09-03T15:50:00Z,24.4560,-81.8770,45.4,8.8,280.0,9.8,'11111222,11111222,11111222' 
NDBC,ioos:station:NOAA.NDBC:SANF1:1,2019-09-03T16:50:00Z,24.4560,-81.8770,45.4,8.2,270.0,9.3,'11111222,11111222,11111222' 
NDBC,ioos:station:NOAA.NDBC:SANF1:1,2019-09-03T17:50:00Z,24.4560,-81.8770,45.4,8.8,260.0,9.8,'11111222,11111222,11111222' 
NDBC,ioos:station:NOAA.NDBC:SANF1:1,2019-09-03T19:00:00Z,24.4560,-81.8770,45.4,7.2,270.0,8.8,'11111222,11111222,11111222' 
NDBC,ioos:station:NOAA.NDBC:SANF1:1,2019-09-03T19:50:00Z,24.4560,-81.8770,45.4,8.8,290.0,9.8,'11111222,11111222,11111222' 
NDBC,ioos:station:NOAA.NDBC:SANF1:1,2019-09-03T20:50:00Z,24.4560,-81.8770,45.4,8.2,300.0,10.3,'11111222,11111222,11111222' 
NDBC,ioos:station:NOAA.NDBC:SANF1:1,2019-09-03T22:00:00Z,24.4560,-81.8770,45.4,8.2,260.0,11.3,'11111222,11111222,11111222' 
NDBC,ioos:station:NOAA.NDBC:SANF1:1,2019-09-03T22:50:00Z,24.4560,-81.8770,45.4,7.7,280.0,9.3,'11111222,11111222,11111222' 
NDBC,ioos:station:NOAA.NDBC:SANF1:1,2019-09-03T23:50:00Z,24.4560,-81.8770,45.4,8.2,290.0,9.8,'11111222,11111222,11111222' 
NDBC,ioos:station:NOAA.NDBC:SANF1:1,2019-09-04T00:50:00Z,24.4560,-81.8770,45.4,5.7,270.0,7.2,'11111222,11111222,11111222' 
NDBC,ioos:station:NOAA.NDBC:SANF1:1,2019-09-04T01:50:00Z,24.4560,-81.8770,45.4,6.2,280.0,7.7,'11111222,11111222,11111222' 
NDBC,ioos:station:NOAA.NDBC:SANF1:1,2019-09-04T02:50:00Z,24.4560,-81.8770,45.4,7.2,280.0,8.2,'11111222,11111222,11111222' 
NDBC,ioos:station:NOAA.NDBC:SANF1:1,2019-09-04T04:00:00Z,24.4560,-81.8770,45.4,6.7,290.0,7.7,'11111222,11111222,11111222' 
NDBC,ioos:station:NOAA.NDBC:SANF1:1,2019-09-04T04:50:00Z,24.4560,-81.8770,45.4,6.7,280.0,8.2,'11111222,11111222,11111222' 
NDBC,ioos:station:NOAA.NDBC:SANF1:1,2019-09-04T05:50:00Z,24.4560,-81.8770,45.4,7.2,260.0,8.8,'11111222,11111222,11111222' 
NDBC,ioos:station:NOAA.NDBC:SANF1:1,2019-09-04T06:50:00Z,24.4560,-81.8770,45.4,8.2,280.0,10.3,'11111222,11111222,11111222' 
NDBC,ioos:station:NOAA.NDBC:SANF1:1,2019-09-04T07:50:00Z,24.4560,-81.8770,45.4,6.7,270.0,8.2,'11111222,11111222,11111222' 
NDBC,ioos:station:NOAA.NDBC:SANF1:1,2019-09-04T09:00:00Z,24.4560,-81.8770,45.4,6.7,310.0,7.7,'11111222,11111222,11111222' 
NDBC,ioos:station:NOAA.NDBC:SANF1:1,2019-09-04T09:50:00Z,24.4560,-81.8770,45.4,6.2,280.0,7.7,'11111222,11111222,11111222' 
NDBC,ioos:station:NOAA.NDBC:SANF1:1,2019-09-04T10:50:00Z,24.4560,-81.8770,45.4,6.7,280.0,7.7,'11111222,11111222,11111222' 
NDBC,ioos:station:NOAA.NDBC:SANF1:1,2019-09-04T11:50:00Z,24.4560,-81.8770,45.4,7.2,270.0,8.2,'11111222,11111222,11111222' 
NDBC,ioos:station:NOAA.NDBC:SANF1:1,2019-09-04T12:50:00Z,24.4560,-81.8770,45.4,7.2,250.0,8.2,'11111222,11111222,11111222' 
NDBC,ioos:station:NOAA.NDBC:SANF1:1,2019-09-04T13:50:00Z,24.4560,-81.8770,45.4,8.2,260.0,9.3,'11111222,11111222,11111222' 
NDBC,ioos:station:NOAA.NDBC:SANF1:1,2019-09-04T14:50:00Z,24.4560,-81.8770,45.4,6.2,280.0,7.7,'11111222,11111222,11111222' 
NDBC,ioos:station:NOAA.NDBC:SANF1:1,2019-09-04T15:50:00Z,24.4560,-81.8770,45.4,5.1,250.0,6.2,'11111222,11111222,11111222' 
NDBC,ioos:station:NOAA.NDBC:SANF1:1,2019-09-04T16:50:00Z,24.4560,-81.8770,45.4,5.7,280.0,9.3,'11111222,11111222,11111222' 
NDBC,ioos:station:NOAA.NDBC:SANF1:1,2019-09-04T17:50:00Z,24.4560,-81.8770,45.4,7.7,250.0,9.8,'11111222,11111222,11111222' 
NDBC,ioos:station:NOAA.NDBC:SANF1:1,2019-09-04T18:50:00Z,24.4560,-81.8770,45.4,5.7,250.0,6.7,'11111222,11111222,11111222' 
NDBC,ioos:station:NOAA.NDBC:SANF1:1,2019-09-04T19:50:00Z,24.4560,-81.8770,45.4,7.7,240.0,8.8,'11111222,11111222,11111222' 
NDBC,ioos:station:NOAA.NDBC:SANF1:1,2019-09-04T20:50:00Z,24.4560,-81.8770,45.4,7.7,260.0,8.8,'11111222,11111222,11111222' 
NDBC,ioos:station:NOAA.NDBC:SANF1:1,2019-09-04T21:50:00Z,24.4560,-81.8770,45.4,6.2,270.0,7.2,'11111222,11111222,11111222' 
NDBC,ioos:station:NOAA.NDBC:SANF1:1,2019-09-04T22:50:00Z,24.4560,-81.8770,45.4,6.7,270.0,7.7,'11111222,11111222,11111222' 
NDBC,ioos:station:NOAA.NDBC:SANF1:1,2019-09-04T23:50:00Z,24.4560,-81.8770,45.4,6.2,270.0,7.2,'11111222,11111222,11111222' 
NDBC,ioos:station:NOAA.NDBC:SANF1:1,2019-09-05T00:50:00Z,24.4560,-81.8770,45.4,5.7,280.0,6.7,'11111222,11111222,11111222' 
NDBC,ioos:station:NOAA.NDBC:SANF1:1,2019-09-05T01:50:00Z,24.4560,-81.8770,45.4,5.1,270.0,6.2,'11111222,11111222,11111222' 
NDBC,ioos:station:NOAA.NDBC:SANF1:1,2019-09-05T02:50:00Z,24.4560,-81.8770,45.4,4.1,260.0,5.1,'11111222,11111222,11111222' 
NDBC,ioos:station:NOAA.NDBC:SANF1:1,2019-09-05T03:50:00Z,24.4560,-81.8770,45.4,5.7,250.0,6.2,'11111222,11111222,11111222' 
NDBC,ioos:station:NOAA.NDBC:SANF1:1,2019-09-05T04:50:00Z,24.4560,-81.8770,45.4,6.2,240.0,6.7,'11111222,11111222,11111222' 
NDBC,ioos:station:NOAA.NDBC:SANF1:1,2019-09-05T06:00:00Z,24.4560,-81.8770,45.4,6.2,260.0,7.2,'11111222,11111222,11111222' 
NDBC,ioos:station:NOAA.NDBC:SANF1:1,2019-09-05T06:50:00Z,24.4560,-81.8770,45.4,5.7,270.0,6.7,'11111222,11111222,11111222' 
NDBC,ioos:station:NOAA.NDBC:SANF1:1,2019-09-05T07:50:00Z,24.4560,-81.8770,45.4,4.6,270.0,5.7,'11111222,11111222,11111222' 
NDBC,ioos:station:NOAA.NDBC:SANF1:1,2019-09-05T08:40:00Z,24.4560,-81.8770,45.4,5.1,260.0,6.2,'11111222,11111222,11111222' 
NDBC,ioos:station:NOAA.NDBC:SANF1:1,2019-09-05T09:50:00Z,24.4560,-81.8770,45.4,4.6,250.0,5.1,'11111222,11111222,11111222' 
NDBC,ioos:station:NOAA.NDBC:SANF1:1,2019-09-05T11:00:00Z,24.4560,-81.8770,45.4,5.1,270.0,6.7,'11111222,11111222,11111222' 
NDBC,ioos:station:NOAA.NDBC:SANF1:1,2019-09-05T11:50:00Z,24.4560,-81.8770,45.4,5.7,270.0,6.7,'11111222,11111222,11111222' 
NDBC,ioos:station:NOAA.NDBC:SANF1:1,2019-09-05T12:50:00Z,24.4560,-81.8770,45.4,3.1,270.0,4.6,'11111222,11111222,11111222' 
NDBC,ioos:station:NOAA.NDBC:SANF1:1,2019-09-05T13:50:00Z,24.4560,-81.8770,45.4,4.1,280.0,5.1,'11111222,11111222,11111222' 
NDBC,ioos:station:NOAA.NDBC:SANF1:1,2019-09-05T14:50:00Z,24.4560,-81.8770,45.4,2.6,280.0,3.1,'11111222,11111222,11111222' 
NDBC,ioos:station:NOAA.NDBC:SANF1:1,2019-09-05T15:20:00Z,24.4560,-81.8770,45.4,2.1,240.0,2.6,'11111222,11111222,11111222' 
NDBC,ioos:station:NOAA.NDBC:SANF1:1,2019-09-05T16:50:00Z,24.4560,-81.8770,45.4,1.5,320.0,3.1,'11111222,11111222,11111222' 
NDBC,ioos:station:NOAA.NDBC:SANF1:1,2019-09-05T17:50:00Z,24.4560,-81.8770,45.4,1.0,300.0,1.5,'11111222,11111222,11111222' 
NDBC,ioos:station:NOAA.NDBC:SANF1:1,2019-09-05T18:50:00Z,24.4560,-81.8770,45.4,3.6,240.0,5.1,'11111222,11111222,11111222' 
NDBC,ioos:station:NOAA.NDBC:SANF1:1,2019-09-05T19:50:00Z,24.4560,-81.8770,45.4,5.7,250.0,6.7,'11111222,11111222,11111222' 
NDBC,ioos:station:NOAA.NDBC:SANF1:1,2019-09-05T20:50:00Z,24.4560,-81.8770,45.4,5.7,270.0,6.2,'11111222,11111222,11111222' 
NDBC,ioos:station:NOAA.NDBC:SANF1:1,2019-09-05T21:50:00Z,24.4560,-81.8770,45.4,5.1,270.0,5.7,'11111222,11111222,11111222' 
NDBC,ioos:station:NOAA.NDBC:SANF1:1,2019-09-05T22:50:00Z,24.4560,-81.8770,45.4,4.1,260.0,5.1,'11111222,11111222,11111222' 
NDBC,ioos:station:NOAA.NDBC:SANF1:1,2019-09-05T23:50:00Z,24.4560,-81.8770,45.4,5.1,260.0,6.2,'11111222,11111222,11111222' 
NDBC,ioos:station:NOAA.NDBC:SANF1:1,2019-09-06T00:50:00Z,24.4560,-81.8770,45.4,5.7,280.0,6.7,'11111222,11111222,11111222' 
NDBC,ioos:station:NOAA.NDBC:SANF1:1,2019-09-06T01:50:00Z,24.4560,-81.8770,45.4,4.6,280.0,5.7,'11111222,11111222,11111222' 
NDBC,ioos:station:NOAA.NDBC:SANF1:1,2019-09-06T02:50:00Z,24.4560,-81.8770,45.4,2.6,290.0,4.1,'11111222,11111222,11111222' 
NDBC,ioos:station:NOAA.NDBC:SANF1:1,2019-09-06T03:50:00Z,24.4560,-81.8770,45.4,3.1,300.0,4.1,'11111222,11111222,11111222' 
NDBC,ioos:station:NOAA.NDBC:SANF1:1,2019-09-06T04:50:00Z,24.4560,-81.8770,45.4,3.6,290.0,4.6,'11111222,11111222,11111222' 
NDBC,ioos:station:NOAA.NDBC:SANF1:1,2019-09-06T07:10:00Z,24.4560,-81.8770,45.4,3.6,280.0,4.1,'11111222,11111222,11111222' 
NDBC,ioos:station:NOAA.NDBC:SANF1:1,2019-09-06T08:10:00Z,24.4560,-81.8770,45.4,4.1,280.0,5.7,'11111222,11111222,11111222' 
NDBC,ioos:station:NOAA.NDBC:SANF1:1,2019-09-06T08:50:00Z,24.4560,-81.8770,45.4,3.6,290.0,4.6,'11111222,11111222,11111222' 
NDBC,ioos:station:NOAA.NDBC:SANF1:1,2019-09-06T10:00:00Z,24.4560,-81.8770,45.4,4.6,290.0,6.2,'11111222,11111222,11111222' 
NDBC,ioos:station:NOAA.NDBC:SANF1:1,2019-09-06T11:00:00Z,24.4560,-81.8770,45.4,5.7,300.0,6.2,'11111222,11111222,11111222' 
NDBC,ioos:station:NOAA.NDBC:SANF1:1,2019-09-06T11:50:00Z,24.4560,-81.8770,45.4,4.6,310.0,5.1,'11111222,11111222,11111222' 
NDBC,ioos:station:NOAA.NDBC:SANF1:1,2019-09-06T12:50:00Z,24.4560,-81.8770,45.4,4.1,300.0,5.1,'11111222,11111222,11111222' 
NDBC,ioos:station:NOAA.NDBC:SANF1:1,2019-09-06T13:50:00Z,24.4560,-81.8770,45.4,3.1,310.0,4.1,'11111222,11111222,11111222' 
NDBC,ioos:station:NOAA.NDBC:SANF1:1,2019-09-06T14:50:00Z,24.4560,-81.8770,45.4,2.6,320.0,3.6,'11111222,11111222,11111222' 
NDBC,ioos:station:NOAA.NDBC:SANF1:1,2019-09-06T15:50:00Z,24.4560,-81.8770,45.4,3.1,300.0,4.1,'11111222,11111222,11111222' 
NDBC,ioos:station:NOAA.NDBC:SANF1:1,2019-09-06T16:50:00Z,24.4560,-81.8770,45.4,2.6,300.0,4.1,'11111222,11111222,11111222' 
NDBC,ioos:station:NOAA.NDBC:SANF1:1,2019-09-06T17:50:00Z,24.4560,-81.8770,45.4,2.6,290.0,3.6,'11111222,11111222,11111222' 
NDBC,ioos:station:NOAA.NDBC:SANF1:1,2019-09-06T18:50:00Z,24.4560,-81.8770,45.4,2.6,290.0,4.6,'11111222,11111222,11111222' 
NDBC,ioos:station:NOAA.NDBC:SANF1:1,2019-09-06T19:50:00Z,24.4560,-81.8770,45.4,5.1,290.0,6.2,'11111222,11111222,11111222' 
NDBC,ioos:station:NOAA.NDBC:SANF1:1,2019-09-06T20:50:00Z,24.4560,-81.8770,45.4,4.6,290.0,5.7,'11111222,11111222,11111222' 
NDBC,ioos:station:NOAA.NDBC:SANF1:1,2019-09-06T21:50:00Z,24.4560,-81.8770,45.4,3.6,300.0,4.6,'11111222,11111222,11111222' 
NDBC,ioos:station:NOAA.NDBC:SANF1:1,2019-09-06T22:50:00Z,24.4560,-81.8770,45.4,4.1,300.0,5.1,'11111222,11111222,11111222' 
NDBC,ioos:station:NOAA.NDBC:SANF1:1,2019-09-06T23:50:00Z,24.4560,-81.8770,45.4,4.6,280.0,5.7,'11111222,11111222,11111222' 
NDBC,ioos:station:NOAA.NDBC:SANF1:1,2019-09-07T00:50:00Z,24.4560,-81.8770,45.4,4.1,310.0,5.1,'11111222,11111222,11111222' 
NDBC,ioos:station:NOAA.NDBC:SANF1:1,2019-09-07T01:50:00Z,24.4560,-81.8770,45.4,3.1,300.0,3.6,'11111222,11111222,11111222' 
NDBC,ioos:station:NOAA.NDBC:SANF1:1,2019-09-07T02:50:00Z,24.4560,-81.8770,45.4,4.1,270.0,5.1,'11111222,11111222,11111222' 
NDBC,ioos:station:NOAA.NDBC:SANF1:1,2019-09-07T03:50:00Z,24.4560,-81.8770,45.4,3.1,280.0,4.1,'11111222,11111222,11111222' 
NDBC,ioos:station:NOAA.NDBC:SANF1:1,2019-09-07T04:50:00Z,24.4560,-81.8770,45.4,3.1,280.0,4.1,'11111222,11111222,11111222' 
NDBC,ioos:station:NOAA.NDBC:SANF1:1,2019-09-07T05:50:00Z,24.4560,-81.8770,45.4,3.1,280.0,4.1,'11111222,11111222,11111222' 
NDBC,ioos:station:NOAA.NDBC:SANF1:1,2019-09-07T06:50:00Z,24.4560,-81.8770,45.4,3.1,260.0,3.6,'11111222,11111222,11111222' 
NDBC,ioos:station:NOAA.NDBC:SANF1:1,2019-09-07T07:50:00Z,24.4560,-81.8770,45.4,3.1,260.0,3.6,'11111222,11111222,11111222' 
NDBC,ioos:station:NOAA.NDBC:SANF1:1,2019-09-07T08:50:00Z,24.4560,-81.8770,45.4,2.6,270.0,3.6,'11111222,11111222,11111222' 
NDBC,ioos:station:NOAA.NDBC:SANF1:1,2019-09-07T09:50:00Z,24.4560,-81.8770,45.4,3.6,280.0,4.6,'11111222,11111222,11111222' 
NDBC,ioos:station:NOAA.NDBC:SANF1:1,2019-09-07T10:50:00Z,24.4560,-81.8770,45.4,3.1,290.0,3.6,'11111222,11111222,11111222' 
NDBC,ioos:station:NOAA.NDBC:SANF1:1,2019-09-07T11:50:00Z,24.4560,-81.8770,45.4,3.1,260.0,3.6,'11111222,11111222,11111222' 
NDBC,ioos:station:NOAA.NDBC:SANF1:1,2019-09-07T12:50:00Z,24.4560,-81.8770,45.4,2.6,250.0,3.6,'11111222,11111222,11111222' 
NDBC,ioos:station:NOAA.NDBC:SANF1:1,2019-09-07T13:50:00Z,24.4560,-81.8770,45.4,2.1,260.0,2.6,'11111222,11111222,11111222' 
NDBC,ioos:station:NOAA.NDBC:SANF1:1,2019-09-07T14:50:00Z,24.4560,-81.8770,45.4,2.6,250.0,3.1,'11111222,11111222,11111222' 
NDBC,ioos:station:NOAA.NDBC:SANF1:1,2019-09-07T15:50:00Z,24.4560,-81.8770,45.4,1.5,250.0,2.6,'11111222,11111222,11111222' 
NDBC,ioos:station:NOAA.NDBC:SANF1:1,2019-09-07T16:50:00Z,24.4560,-81.8770,45.4,3.1,220.0,4.6,'11111222,11111222,11111222' 
NDBC,ioos:station:NOAA.NDBC:SANF1:1,2019-09-07T18:00:00Z,24.4560,-81.8770,45.4,3.1,260.0,4.1,'11111222,11111222,11111222' 
NDBC,ioos:station:NOAA.NDBC:SANF1:1,2019-09-07T19:00:00Z,24.4560,-81.8770,45.4,2.6,260.0,3.6,'11111222,11111222,11111222' 
NDBC,ioos:station:NOAA.NDBC:SANF1:1,2019-09-07T20:00:00Z,24.4560,-81.8770,45.4,2.6,240.0,3.1,'11111222,11111222,11111222' 
NDBC,ioos:station:NOAA.NDBC:SANF1:1,2019-09-07T21:00:00Z,24.4560,-81.8770,45.4,2.6,260.0,3.6,'11111222,11111222,11111222' 
NDBC,ioos:station:NOAA.NDBC:SANF1:1,2019-09-07T21:50:00Z,24.4560,-81.8770,45.4,2.1,250.0,2.6,'11111222,11111222,11111222' 
NDBC,ioos:station:NOAA.NDBC:SANF1:1,2019-09-07T22:50:00Z,24.4560,-81.8770,45.4,2.6,260.0,3.6,'11111222,11111222,11111222' 
NDBC,ioos:station:NOAA.NDBC:SANF1:1,2019-09-07T23:50:00Z,24.4560,-81.8770,45.4,2.6,260.0,3.1,'11111222,11111222,11111222' 
NDBC,ioos:station:NOAA.NDBC:SANF1:1,2019-09-08T00:50:00Z,24.4560,-81.8770,45.4,2.1,250.0,2.6,'11111222,11111222,11111222' 
NDBC,ioos:station:NOAA.NDBC:SANF1:1,2019-09-08T01:50:00Z,24.4560,-81.8770,45.4,1.5,260.0,2.1,'11111222,11111222,11111222' 
NDBC,ioos:station:NOAA.NDBC:SANF1:1,2019-09-08T02:50:00Z,24.4560,-81.8770,45.4,1.0,230.0,1.5,'11111222,11111222,11111222' 
NDBC,ioos:station:NOAA.NDBC:SANF1:1,2019-09-08T03:50:00Z,24.4560,-81.8770,45.4,2.1,200.0,2.6,'11111222,11111222,11111222' 
NDBC,ioos:station:NOAA.NDBC:SANF1:1,2019-09-08T04:50:00Z,24.4560,-81.8770,45.4,1.5,180.0,2.1,'11111222,11111222,11111222' 
NDBC,ioos:station:NOAA.NDBC:SANF1:1,2019-09-08T05:50:00Z,24.4560,-81.8770,45.4,1.5,190.0,2.6,'11111222,11111222,11111222' 
NDBC,ioos:station:NOAA.NDBC:SANF1:1,2019-09-08T06:50:00Z,24.4560,-81.8770,45.4,2.6,160.0,3.1,'11111222,11111222,11111222' 
NDBC,ioos:station:NOAA.NDBC:SANF1:1,2019-09-08T07:50:00Z,24.4560,-81.8770,45.4,3.1,150.0,4.1,'11111222,11111222,11111222' 
NDBC,ioos:station:NOAA.NDBC:SANF1:1,2019-09-08T08:50:00Z,24.4560,-81.8770,45.4,3.1,160.0,3.6,'11111222,11111222,11111222' 
NDBC,ioos:station:NOAA.NDBC:SANF1:1,2019-09-08T09:50:00Z,24.4560,-81.8770,45.4,2.6,190.0,3.1,'11111222,11111222,11111222' 
NDBC,ioos:station:NOAA.NDBC:SANF1:1,2019-09-08T11:00:00Z,24.4560,-81.8770,45.4,1.5,200.0,2.6,'11111222,11111222,11111222' 
NDBC,ioos:station:NOAA.NDBC:SANF1:1,2019-09-08T11:50:00Z,24.4560,-81.8770,45.4,1.0,190.0,2.1,'11111222,11111222,11111222' 
NDBC,ioos:station:NOAA.NDBC:SANF1:1,2019-09-08T13:00:00Z,24.4560,-81.8770,45.4,0.0,-9999.0,0.5,'11111222,11111222,11111222' 
NDBC,ioos:station:NOAA.NDBC:SANF1:1,2019-09-08T13:50:00Z,24.4560,-81.8770,45.4,0.5,210.0,1.0,'11111222,11111222,11111222' 
NDBC,ioos:station:NOAA.NDBC:SANF1:1,2019-09-08T14:50:00Z,24.4560,-81.8770,45.4,0.5,130.0,1.0,'11111222,11111222,11111222' 
NDBC,ioos:station:NOAA.NDBC:SANF1:1,2019-09-08T15:50:00Z,24.4560,-81.8770,45.4,1.0,150.0,1.5,'11111222,11111222,11111222' 
NDBC,ioos:station:NOAA.NDBC:SANF1:1,2019-09-08T16:50:00Z,24.4560,-81.8770,45.4,1.5,80.0,2.1,'11111222,11111222,11111222' 
NDBC,ioos:station:NOAA.NDBC:SANF1:1,2019-09-08T17:50:00Z,24.4560,-81.8770,45.4,1.5,130.0,2.6,'11111222,11111222,11111222' 
NDBC,ioos:station:NOAA.NDBC:SANF1:1,2019-09-08T18:50:00Z,24.4560,-81.8770,45.4,2.1,110.0,3.1,'11111222,11111222,11111222' 
NDBC,ioos:station:NOAA.NDBC:SANF1:1,2019-09-08T19:50:00Z,24.4560,-81.8770,45.4,1.5,90.0,2.6,'11111222,11111222,11111222' 
NDBC,ioos:station:NOAA.NDBC:SANF1:1,2019-09-08T20:50:00Z,24.4560,-81.8770,45.4,2.6,100.0,3.1,'11111222,11111222,11111222' 
NDBC,ioos:station:NOAA.NDBC:SANF1:1,2019-09-08T21:50:00Z,24.4560,-81.8770,45.4,2.6,110.0,3.6,'11111222,11111222,11111222' 
NDBC,ioos:station:NOAA.NDBC:SANF1:1,2019-09-08T22:50:00Z,24.4560,-81.8770,45.4,3.1,140.0,3.6,'11111222,11111222,11111222' 
NDBC,ioos:station:NOAA.NDBC:SANF1:1,2019-09-08T23:50:00Z,24.4560,-81.8770,45.4,3.1,110.0,4.1,'11111222,11111222,11111222' 
NDBC,ioos:station:NOAA.NDBC:SANF1:1,2019-09-09T01:00:00Z,24.4560,-81.8770,45.4,5.7,110.0,6.7,'11111222,11111222,11111222' 
NDBC,ioos:station:NOAA.NDBC:SANF1:1,2019-09-09T01:50:00Z,24.4560,-81.8770,45.4,6.2,100.0,7.2,'11111222,11111222,11111222' 
NDBC,ioos:station:NOAA.NDBC:SANF1:1,2019-09-09T03:00:00Z,24.4560,-81.8770,45.4,6.7,120.0,8.2,'11111222,11111222,11111222' 
NDBC,ioos:station:NOAA.NDBC:SANF1:1,2019-09-09T03:50:00Z,24.4560,-81.8770,45.4,7.7,120.0,8.8,'11111222,11111222,11111222' 